Regional Weather Roundup
Issued by NWS

Home | Current Version | Previous Version | Graphics & Text | Print | Product List | Glossary On
Versions: 1 2 3 4 5 6 7 8 9 10 11 12 13 14 15 16 17 18 19 20 21 22 23 24 25 26 27 28 29 30 31 32 33 34 35 36 37 38 39 40 41 42 43 44 45 46 47 48 49 50
000
ASUS43 KOAX 272010
RWRNE

WEATHER ROUNDUP FOR NEBRASKA
NATIONAL WEATHER SERVICE OMAHA NE
200 PM CST FRI FEB 27 2015

NOTES: SATELLITE DATA IS BEING USED TO AUGMENT CLOUD COVER ABOVE
       12000 FEET.
       "FAIR" INDICATES FEW OR NO CLOUDS BELOW 12,000 FEET WITH NO
       SIGNIFICANT WEATHER AND/OR OBSTRUCTIONS TO VISIBILITY.

  * THESE STATIONS DO NOT REPORT WEATHER SUCH AS RAIN...SNOW OR FOG.

NEZ001>004-019>022-054>056-272100-
NEBRASKA PANHANDLE

CITY           SKY/WX    TMP DP  RH WIND       PRES   REMARKS
SCOTTSBLUFF    CLOUDY    22   8  55 S22       30.05F WCI   6
ALLIANCE       CLOUDY    20   9  62 S24G32    30.07F WCI   3
CHADRON        CLOUDY    23  10  57 S24G33    30.09F WCI   7
KIMBALL        LGT SNOW  17   9  72 S23       29.98F WCI  -1
SIDNEY         CLOUDY    18   8  65 S23G30    30.07F WCI   0
$$

NEZ057>060-069>072-079>082-272100-
SOUTHWEST NEBRASKA

CITY           SKY/WX    TMP DP  RH WIND       PRES   REMARKS
NORTH PLATTE   PTSUNNY   24   1  36 S16       30.26F WCI  11
IMPERIAL         N/A     21   8  57 S18G26    30.21F WCI   6
LEXINGTON      PTSUNNY   22  -1  36 S10       30.34F WCI  11
MCCOOK         CLOUDY    23   4  44 S14       30.32F WCI  11
OGALLALA       PTSUNNY   22   8  56 S18G25    30.20F WCI   7
$$

NEZ005>010-023>029-035>040-094-272100-
NORTH CENTRAL NEBRASKA

CITY           SKY/WX    TMP DP  RH WIND       PRES   REMARKS
VALENTINE      SUNNY     24  -1  33 S15G23    30.24F WCI  11
AINSWORTH      SUNNY     22  -3  33 S9        30.27F WCI  12
BROKEN BOW     SUNNY     22  -1  36 S9G22     30.32F WCI  12
O`NEILL        SUNNY     22  -3  33 SW5       30.37F WCI  16
ORD            SUNNY     20  -6  31 S9        30.37F WCI   9
THEDFORD       SUNNY     24   1  37 SW14G20   30.25F WCI  11
$$

NEZ041-046>049-061>064-073>077-083>087-272100-
SOUTH CENTRAL NEBRASKA

CITY           SKY/WX    TMP DP  RH WIND       PRES   REMARKS
GRAND ISLAND   SUNNY     20  -2  38 VRB3      30.44F
AURORA         SUNNY     20  -4  35 S8        30.44F WCI  10
HASTINGS       SUNNY     20  -4  34 VRB6      30.41F WCI  12
HEBRON         FAIR      20  -3  36 S3        30.49F
HOLDREGE       MOSUNNY   20  -5  33 SE7       30.36F WCI  11
KEARNEY *      SUNNY     19  -4  35 S7G16     30.39F WCI  10
YORK           SUNNY     19   0  42 SW6       30.46F WCI  11
$$

NEZ011>018-030>034-042>045-272100-
NORTHEAST NEBRASKA

CITY           SKY/WX    TMP DP  RH WIND       PRES   REMARKS
NORFOLK        SUNNY     19   0  43 S6        30.45F WCI  11
ALBION         SUNNY     20  -4  34 S7        30.42F WCI  11
BLAIR          SUNNY     15   3  58 CALM      30.52F
COLUMBUS *     SUNNY     18  -4  38 S6        30.50F WCI   9
FREMONT        SUNNY     18   4  53 S3        30.53F
TEKAMAH        MOSUNNY   15   4  61 CALM      30.56F
WAYNE          SUNNY     19   5  55 S8        30.49F WCI   9
$$

NEZ050>053-065>068-078-088>093-272100-
SOUTHEAST NEBRASKA

CITY           SKY/WX    TMP DP  RH WIND       PRES   REMARKS
LINCOLN        SUNNY     18  -3  39 SE7       30.54F WCI   9
OMAHA EPPLEY   MOSUNNY   17   0  47 E3        30.56F
BEATRICE       SUNNY     19  -3  39 SW5       30.50F WCI  12
FALLS CITY     SUNNY     19  -1  41 S8        30.56F WCI   9
NEBRASKA CITY  SUNNY     19  -3  38 CALM      30.53F
PLATTSMOUTH    SUNNY     17   1  50 CALM      30.54F
$$

NEZ044-045-051>053-067-272100-
OMAHA AREA

CITY           SKY/WX    TMP DP  RH WIND       PRES   REMARKS
OMAHA EPPLEY   MOSUNNY   17   0  47 E3        30.56F
BLAIR          SUNNY     15   3  58 CALM      30.52F
FREMONT        SUNNY     18   4  53 S3        30.53F
MILLARD        SUNNY     17  -1  44 CALM      30.55F
OFFUTT AFB     SUNNY     17   1  49 VRB5      30.55F WCI  10
PLATTSMOUTH    SUNNY     17   1  50 CALM      30.54F
WAHOO          FAIR      19   1  45 SE5       30.53F WCI  12
$$



USA.gov is the U.S. government's official web portal to all federal, state and local government web resources and services.